This demonstration page uses our WeatherBlox Daily Observations layout. Learn more.

Hourly Observations for February 5, 2020

Temp ( °F °C ) Dew Point ( °F °C ) Humidity (%) Winds ( mph kmh ) Pressure ( in mb ) Visibility ( mi km ) Precip ( " mm )
12:54 am 00:54 Cloudy 22 -5.6 11 -11.7 63 63 NNE 10 17 30.25 1024 10 16.0934 0 0
1:54 am 01:54 Cloudy 22 -5.6 10 -12.2 60 60 NNE 10 17 30.25 1024 10 16.0934 0 0
2:54 am 02:54 Cloudy 22 -5.6 10 -12.2 60 60 NNE 12 19 30.25 1024 10 16.0934 0 0
3:54 am 03:54 Cloudy 22 -5.6 10 -12.2 60 60 NE 7 11 30.23 1024 10 16.0934 0 0
4:54 am 04:54 Cloudy 22 -5.6 10 -12.2 60 60 NE 8 13 30.22 1024 10 16.0934 0 0
5:21 am 05:21 Cloudy with Light Snow 21 -6.1 12 -11.1 68 68 NNE 10 17 30.27 1025 3 4.82802 0.001 0.001
5:39 am 05:39 Cloudy with Light Snow 21 -6.1 14 -10 74 74 NE 7 11 30.26 1025 2 3.21868 0.001 0.001
5:54 am 05:54 Cloudy with Light Snow 20 -6.7 14 -10 78 78 NNE 7 11 30.22 1023 2 3.21868 0.001 0.001
6:31 am 06:31 Cloudy with Light Snow 20 -6.7 15 -9.4 81 81 NNE 8 13 30.24 1024 3 4.82802 0.01 0.254
6:50 am 06:50 Cloudy with Light Snow 19 -7 16 -9 86 86 NNE 8 13 30.25 1024 2.5 4.02335 0.01 0.254
6:54 am 06:54 Cloudy with Light Snow 20 -6.7 15 -9.4 81 81 NNE 8 13 30.19 1022 2 3.21868 0.01 0.254
7:06 am 07:06 Cloudy with Light Snow 20 -6.7 15 -9.4 81 81 NNE 7 11 30.24 1024 1.75 2.816345 0.001 0.001
7:28 am 07:28 Cloudy with Light Snow 20 -6.7 15 -9.4 81 81 NNE 6 9 30.24 1024 1.75 2.816345 0.01 0.254
7:49 am 07:49 Cloudy with Light Snow 19 -7 16 -9 86 86 NNE 7 11 30.25 1024 1.25 2.011675 0.02 0.508
7:54 am 07:54 Mostly Cloudy with Scattered Snow Showers 20 -6.7 15 -9.4 81 81 NNE 6 9 30.19 1022 0.75 1.207005 0.02 0.508
8:18 am 08:18 Mostly Cloudy with Scattered Snow Showers 20 -6.7 16 -8.9 85 85 NNE 7 11 30.24 1024 0.75 1.207005 0.01 0.254
8:33 am 08:33 Mostly Cloudy with Scattered Snow Showers 20 -6.7 16 -8.9 85 85 NNE 7 11 30.23 1024 1 1.60934 0.02 0.508
8:54 am 08:54 Mostly Cloudy with Scattered Snow Showers 20 -6.7 16 -8.9 85 85 NNE 8 13 30.19 1022 1 1.60934 0.02 0.508
9:41 am 09:41 Cloudy with Light Snow 20 -6.7 16 -8.9 85 85 NE 7 11 30.21 1023 0.75 1.207005 0.01 0.254
9:52 am 09:52 Cloudy with Light Snow 21 -6 16 -9 80 80 NE 8 13 30.21 1023 1 1.60934 0.02 0.508
9:54 am 09:54 Cloudy with Light Snow 21 -6.1 16 -8.9 81 81 NNE 7 11 30.17 1022 1 1.60934 0.02 0.508
10:34 am 10:34 Cloudy with Light Snow 22 -5.6 17 -8.3 82 82 NE 6 9 30.21 1023 1.75 2.816345 0.001 0.001
10:52 am 10:52 Cloudy with Light Snow 21 -6 18 -8 86 86 ENE 5 7 30.2 1023 1.75 2.816345 0.001 0.001
10:54 am 10:54 Cloudy with Light Snow 22 -5.6 18 -7.8 85 85 ENE 5 7 30.16 1021 1.75 2.816345 0.001 0.001
11:01 am 11:01 Cloudy with Light Snow 22 -5.6 17 -8.3 82 82 ENE 3 6 30.2 1023 2 3.21868 0.001 0.001
11:09 am 11:09 Cloudy with Light Snow 23 -5 17 -8.3 78 78 ENE 5 7 30.2 1023 2 3.21868 0.001 0.001
11:21 am 11:21 Cloudy with Light Snow 23 -5 18 -7.8 81 81 NE 3 6 30.21 1023 3 4.82802 0.01 0.254
11:52 am 11:52 Cloudy with Light Snow 25 -4 18 -8 74 74 Calm 30.18 1022 2.5 4.02335 0.01 0.254
11:54 am 11:54 Cloudy with Light Snow 24 -4.4 18 -7.8 77 77 NW 3 6 30.15 1021 2.5 4.02335 0.01 0.254
12:27 pm 12:27 Cloudy with Light Snow 25 -3.9 19 -7.2 78 78 Calm 30.15 1021 4 6.43736 0.001 0.001
12:54 pm 12:54 Cloudy 26 -3.3 20 -6.7 78 78 NW 3 6 30.09 1019 10 16.0934 0.001 0.001
1:54 pm 13:54 Cloudy 27 -2.8 21 -6.1 78 78 Calm 30.04 1017 10 16.0934 0 0
2:54 pm 14:54 Cloudy 30 -1.1 22 -5.6 72 72 Calm 30 1016 10 16.0934 0 0
3:54 pm 15:54 Mostly Sunny 31 -0.6 18 -7.8 59 59 ESE 5 7 29.97 1015 10 16.0934 0 0
4:54 pm 16:54 Mostly Sunny 31 -0.6 17 -8.3 56 56 NNE 3 6 29.96 1015 10 16.0934 0 0
5:54 pm 17:54 Cloudy 28 -2.2 20 -6.7 72 72 NE 3 6 29.97 1015 10 16.0934 0 0
6:54 pm 18:54 Cloudy 27 -2.8 19 -7.2 72 72 Calm 29.97 1015 10 16.0934 0 0
7:54 pm 19:54 Mostly Clear 26 -3.3 17 -8.3 69 69 ESE 5 7 29.96 1015 10 16.0934 0 0
8:54 pm 20:54 Clear 23 -5 17 -8.3 78 78 Calm 29.95 1014 10 16.0934 0 0
9:54 pm 21:54 Clear 19 -7.2 16 -8.9 88 88 Calm 29.94 1014 10 16.0934 0 0
10:54 pm 22:54 Clear 18 -7.8 15 -9.4 88 88 Calm 29.92 1013 10 16.0934 0 0
11:54 pm 23:54 Clear 17 -8.3 13 -10.6 84 84 SSE 3 6 29.9 1013 10 16.0934 0 0

Powered by AerisWeather